This is the latest recevied weather packets stored in our database for station/object VE3TEJ. If no packets are shown the sender has not sent any weather packets the latest 10 day(s).
| Time | Temp. | Humidity | Pressure | Rain* | Wind** | Luminosity | Snow |
|---|---|---|---|---|---|---|---|
| 1777608136 | 1.11° C | 79% | 1012.8 hPa | 0 mm | - | - | - |
| 1777607837 | 1.11° C | 79% | 1012.6 hPa | 0 mm | - | - | - |
| 1777607537 | 1.11° C | 78% | 1012.8 hPa | 0 mm | - | - | - |
| 1777607237 | 1.11° C | 78% | 1012.8 hPa | 0 mm | - | - | - |
| 1777606937 | 1.11° C | 78% | 1012.8 hPa | 0 mm | - | - | - |
| 1777606638 | 1.67° C | 77% | 1012.7 hPa | 0 mm | - | - | - |
| 1777606336 | 1.67° C | 76% | 1012.9 hPa | 0 mm | - | - | - |
| 1777606036 | 2.22° C | 75% | 1013 hPa | 0 mm | - | - | - |
| 1777605737 | 2.22° C | 74% | 1012.9 hPa | 0 mm | - | - | - |
| 1777605436 | 2.22° C | 74% | 1013.1 hPa | 0 mm | - | - | - |
| 1777605138 | 1.67° C | 75% | 1013 hPa | 0 mm | - | - | - |
| 1777604838 | 1.67° C | 75% | 1013 hPa | 0 mm | - | - | - |
| 1777604537 | 1.67° C | 75% | 1013 hPa | 0 mm | - | - | - |
| 1777604237 | 1.67° C | 74% | 1013.4 hPa | 0 mm | - | - | - |
| 1777603937 | 2.22° C | 72% | 1013.2 hPa | 0 mm | - | - | - |
| 1777603636 | 2.22° C | 72% | 1013.2 hPa | 0 mm | - | - | - |
| 1777603337 | 2.78° C | 72% | 1013.2 hPa | 0 mm | - | - | - |
| 1777603037 | 2.78° C | 72% | 1013.2 hPa | 0 mm | - | - | - |
| 1777602737 | 2.78° C | 71% | 1013.2 hPa | 0 mm | - | - | - |
| 1777602437 | 2.78° C | 70% | 1013.1 hPa | 0 mm | - | - | - |
| 1777602137 | 3.33° C | 69% | 1013 hPa | 0 mm | - | - | - |
| 1777601837 | 3.33° C | 68% | 1013 hPa | 0 mm | - | - | - |
| 1777601537 | 3.89° C | 67% | 1013.2 hPa | 0 mm | - | - | - |
| 1777601237 | 3.89° C | 66% | 1013 hPa | 0 mm | - | - | - |
| 1777600937 | 3.89° C | 66% | 1013.2 hPa | 0 mm | - | - | - |
* Rain latest hour (hover to see other rain measurements)
** Current wind speed in m/s (hover to see current wind gust speed)